Stündliche Wetter Abaran

Heute, 17 Juni, Donnerstag

Zeit Temperatur Niederschläge Wind Luftdruck Luftfeuchtigkeit
00:00 +24°C° 0 mm 2 m/S 725 mmHg 67%
01:00 +24°C° 0 mm 2 m/S 725 mmHg 69%
02:00 +24°C° 0 mm 2 m/S 724 mmHg 71%
03:00 +23°C° 0 mm 2 m/S 724 mmHg 73%
04:00 +23°C° 0.4 mm 2 m/S 724 mmHg 73%
05:00 +22°C° 0.4 mm 3 m/S 724 mmHg 73%
06:00 +21°C° 0.4 mm 3 m/S 724 mmHg 72%
07:00 +22°C° 0.1 mm 3 m/S 724 mmHg 67%
08:00 +24°C° 0.1 mm 2 m/S 724 mmHg 62%
09:00 +25°C° 0.1 mm 2 m/S 724 mmHg 57%
10:00 +26°C° 0.2 mm 2 m/S 724 mmHg 52%
11:00 +28°C° 0.2 mm 3 m/S 724 mmHg 48%
12:00 +29°C° 0.2 mm 3 m/S 724 mmHg 43%
13:00 +29°C° 0 mm 3 m/S 724 mmHg 40%
14:00 +30°C° 0 mm 4 m/S 724 mmHg 37%
15:00 +30°C° 0 mm 4 m/S 723 mmHg 34%
16:00 +30°C° 0 mm 4 m/S 724 mmHg 34%
17:00 +30°C° 0 mm 4 m/S 724 mmHg 35%
18:00 +29°C° 0 mm 4 m/S 724 mmHg 36%
19:00 +28°C° 0 mm 4 m/S 724 mmHg 38%
20:00 +27°C° 0 mm 3 m/S 725 mmHg 40%
21:00 +26°C° 0 mm 3 m/S 725 mmHg 43%
22:00 +26°C° 0 mm 3 m/S 725 mmHg 45%
23:00 +25°C° 0 mm 2 m/S 726 mmHg 47%

Morgen, 18 Juni, Freitag

Zeit Temperatur Niederschläge Wind Luftdruck Luftfeuchtigkeit
00:00 +25°C° 0 mm 2 m/S 726 mmHg 50%
01:00 +24°C° 0 mm 2 m/S 726 mmHg 52%
02:00 +24°C° 0 mm 2 m/S 725 mmHg 54%
03:00 +23°C° 0 mm 2 m/S 725 mmHg 56%
04:00 +24°C° 0 mm 1 m/S 725 mmHg 55%
05:00 +24°C° 0 mm 1 m/S 726 mmHg 54%
06:00 +24°C° 0 mm 1 m/S 726 mmHg 54%
07:00 +25°C° 0 mm 2 m/S 726 mmHg 50%
08:00 +26°C° 0 mm 2 m/S 726 mmHg 47%
09:00 +28°C° 0 mm 3 m/S 726 mmHg 43%
10:00 +28°C° 0 mm 4 m/S 726 mmHg 43%
11:00 +29°C° 0 mm 5 m/S 726 mmHg 43%
12:00 +29°C° 0 mm 6 m/S 726 mmHg 43%
13:00 +29°C° 0 mm 6 m/S 726 mmHg 43%
14:00 +29°C° 0 mm 5 m/S 726 mmHg 42%
15:00 +29°C° 0 mm 4 m/S 726 mmHg 42%
16:00 +28°C° 0 mm 5 m/S 726 mmHg 46%
17:00 +27°C° 0 mm 6 m/S 726 mmHg 49%
18:00 +27°C° 0 mm 7 m/S 726 mmHg 53%
19:00 +25°C° 0 mm 5 m/S 726 mmHg 59%
20:00 +23°C° 0 mm 4 m/S 727 mmHg 65%
21:00 +23°C° 0 mm 2 m/S 727 mmHg 71%
22:00 +23°C° 0 mm 2 m/S 727 mmHg 71%
23:00 +23°C° 0 mm 1 m/S 727 mmHg 72%

übermorgen, 19 Juni, Samstag

Zeit Temperatur Niederschläge Wind Luftdruck Luftfeuchtigkeit
00:00 +22°C° 0 mm 1 m/S 726 mmHg 73%
01:00 +22°C° 0 mm 1 m/S 726 mmHg 74%
02:00 +22°C° 0 mm 1 m/S 726 mmHg 74%
03:00 +22°C° 0 mm 1 m/S 725 mmHg 75%
04:00 +22°C° 0 mm 1 m/S 726 mmHg 74%
05:00 +20°C° 0 mm 0 m/S 726 mmHg 73%
06:00 +20°C° 0 mm 0 m/S 726 mmHg 72%
07:00 +21°C° 0 mm 0 m/S 726 mmHg 67%
08:00 +22°C° 0 mm 0 m/S 726 mmHg 61%
09:00 +23°C° 0 mm 0 m/S 726 mmHg 56%
10:00 +26°C° 0 mm 1 m/S 726 mmHg 52%
11:00 +27°C° 0 mm 2 m/S 726 mmHg 48%
12:00 +28°C° 0 mm 2 m/S 726 mmHg 45%
13:00 +28°C° 0 mm 2 m/S 726 mmHg 44%
14:00 +28°C° 0 mm 2 m/S 726 mmHg 44%
15:00 +29°C° 0 mm 2 m/S 725 mmHg 43%
16:00 +29°C° 0 mm 2 m/S 725 mmHg 44%
17:00 +28°C° 0 mm 2 m/S 725 mmHg 45%
18:00 +28°C° 0 mm 3 m/S 725 mmHg 46%
19:00 +27°C° 0 mm 2 m/S 725 mmHg 49%
20:00 +26°C° 0 mm 2 m/S 726 mmHg 52%
21:00 +25°C° 0 mm 2 m/S 726 mmHg 56%
22:00 +25°C° 0 mm 2 m/S 726 mmHg 56%
23:00 +24°C° 0 mm 2 m/S 726 mmHg 55%

20 Juni, Sonntag

Zeit Temperatur Niederschläge Wind Luftdruck Luftfeuchtigkeit
00:00 +24°C° 0 mm 2 m/S 726 mmHg 55%
01:00 +23°C° 0 mm 2 m/S 726 mmHg 53%
02:00 +23°C° 0 mm 2 m/S 725 mmHg 52%
03:00 +21°C° 0 mm 2 m/S 725 mmHg 50%
04:00 +21°C° 0 mm 3 m/S 725 mmHg 50%
05:00 +21°C° 0 mm 3 m/S 726 mmHg 49%
06:00 +21°C° 0 mm 4 m/S 726 mmHg 49%
07:00 +22°C° 0 mm 4 m/S 726 mmHg 47%
08:00 +22°C° 0 mm 4 m/S 726 mmHg 45%
09:00 +23°C° 0 mm 4 m/S 726 mmHg 43%
10:00 +25°C° 0 mm 3 m/S 726 mmHg 39%
11:00 +27°C° 0 mm 2 m/S 726 mmHg 36%
12:00 +28°C° 0 mm 2 m/S 726 mmHg 32%
13:00 +29°C° 0 mm 2 m/S 726 mmHg 30%
14:00 +30°C° 0 mm 2 m/S 725 mmHg 27%
15:00 +31°C° 0 mm 3 m/S 725 mmHg 25%
16:00 +31°C° 0 mm 3 m/S 725 mmHg 27%
17:00 +30°C° 0 mm 3 m/S 724 mmHg 28%
18:00 +30°C° 0 mm 3 m/S 724 mmHg 30%
19:00 +28°C° 0 mm 3 m/S 725 mmHg 35%
20:00 +27°C° 0 mm 2 m/S 725 mmHg 40%
21:00 +25°C° 0 mm 1 m/S 725 mmHg 46%
22:00 +25°C° 0 mm 1 m/S 725 mmHg 47%
23:00 +24°C° 0 mm 1 m/S 725 mmHg 48%

21 Juni, Montag

Zeit Temperatur Niederschläge Wind Luftdruck Luftfeuchtigkeit
00:00 +22°C° 0 mm 0 m/S 725 mmHg 50%
01:00 +23°C° 0 mm 1 m/S 725 mmHg 50%
02:00 +23°C° 0 mm 2 m/S 725 mmHg 50%
03:00 +23°C° 0 mm 2 m/S 725 mmHg 50%
04:00 +23°C° 0 mm 2 m/S 725 mmHg 51%
05:00 +23°C° 0 mm 2 m/S 725 mmHg 52%
06:00 +23°C° 0 mm 2 m/S 725 mmHg 53%
07:00 +24°C° 0 mm 2 m/S 725 mmHg 50%
08:00 +25°C° 0 mm 2 m/S 726 mmHg 47%
09:00 +26°C° 0 mm 2 m/S 726 mmHg 44%
10:00 +28°C° 0 mm 2 m/S 726 mmHg 40%
11:00 +29°C° 0 mm 2 m/S 726 mmHg 37%
12:00 +30°C° 0 mm 2 m/S 726 mmHg 33%
13:00 +31°C° 0 mm 3 m/S 725 mmHg 32%
14:00 +32°C° 0 mm 4 m/S 725 mmHg 31%
15:00 +33°C° 0 mm 5 m/S 724 mmHg 30%
16:00 +32°C° 0 mm 5 m/S 725 mmHg 33%
17:00 +30°C° 0 mm 5 m/S 725 mmHg 36%
18:00 +29°C° 0 mm 5 m/S 725 mmHg 38%
19:00 +28°C° 0 mm 4 m/S 725 mmHg 42%
20:00 +27°C° 0 mm 3 m/S 726 mmHg 46%
21:00 +26°C° 0 mm 2 m/S 726 mmHg 50%
22:00 +25°C° 0 mm 1 m/S 726 mmHg 50%
23:00 +25°C° 0 mm 1 m/S 726 mmHg 51%

22 Juni, Dienstag

Zeit Temperatur Niederschläge Wind Luftdruck Luftfeuchtigkeit
00:00 +25°C° 0 mm 1 m/S 726 mmHg 52%
01:00 +24°C° 0 mm 1 m/S 726 mmHg 49%
02:00 +24°C° 0 mm 2 m/S 725 mmHg 46%
03:00 +23°C° 0 mm 2 m/S 725 mmHg 42%
04:00 +24°C° 0 mm 2 m/S 725 mmHg 41%
05:00 +24°C° 0 mm 2 m/S 726 mmHg 40%
06:00 +24°C° 0 mm 2 m/S 726 mmHg 38%
07:00 +25°C° 0 mm 2 m/S 726 mmHg 35%
08:00 +27°C° 0 mm 2 m/S 726 mmHg 31%
09:00 +28°C° 0 mm 2 m/S 726 mmHg 27%
10:00 +29°C° 0 mm 2 m/S 726 mmHg 26%
11:00 +30°C° 0 mm 2 m/S 726 mmHg 26%
12:00 +32°C° 0 mm 1 m/S 726 mmHg 25%
13:00 +32°C° 0 mm 2 m/S 726 mmHg 26%
14:00 +33°C° 0 mm 3 m/S 726 mmHg 27%
15:00 +33°C° 0 mm 4 m/S 726 mmHg 28%
16:00 +32°C° 0 mm 5 m/S 726 mmHg 35%
17:00 +30°C° 0 mm 5 m/S 726 mmHg 41%
18:00 +28°C° 0 mm 6 m/S 726 mmHg 48%
19:00 +27°C° 0 mm 4 m/S 727 mmHg 54%
20:00 +26°C° 0 mm 3 m/S 727 mmHg 61%
21:00 +25°C° 0 mm 1 m/S 728 mmHg 67%
22:00 +25°C° 0 mm 1 m/S 728 mmHg 68%
23:00 +24°C° 0 mm 1 m/S 728 mmHg 69%
Mehr zeigen

Wir brauchen deine Erlaubnis

Meteoprog und unser Service Anbieter werden persönliche Daten aufbewahren, so wie Cookies, Geräte Bezeichnung oder ähnliche Technologien von deinem Gerät und Prozess, so wie Persönliche Daten Inhalte und Werbungen, genauso wie social Media und den Verkehr zu analysieren.

  • Aufbewahrung und/oder Zugang zu deiner Geräte Informationen.

    Cookies, Geräte Bezeichnung oder andere Informationen, können aufbewahrt oder Zugang zu deinem Gerät erhalten, für den Grund, der oben angegeben wird.

  • Personalisierte Werbung und Inhalte, Messungen, Einblick in das Publikum und Produkt Entwicklung.

    Werbungen und Inhalte können personalisiert werden, basierend auf ein Profil. Mehr Daten können besser personalisierte Werbungen und Inhalte hinzufügen. Werbung und Inhalte können gezeigt und gemessen werden. Einblicke über das Publikum, welche die Werbung gesehen haben und den Inhalt, können abgeleitet werden. So wie Daten können genutzt werden, um es zu verbessern oder die Benutzer Erfahrung zu verbessern das System und die Software.

Wenn du “Ich stimme zu” klickst, erlaubst du uns, die Cookies zu benutzen die Geräte Bezeichnung, den Web oder ähnliche Technologien zu benutzen. Deine Settings, können in deinem Gerät bei deinem Browser geändert werden.

Für den bestimmten Zweck, berechtigten Interessen beruhen darauf, mehr als auf den Inhalt. Du kannst mehr darüber in unseren Privaten und Cookie Politik lesen.